This is the latest recevied weather packets stored in our database for station/object SP2FH-13. If no packets are shown the sender has not sent any weather packets the latest 10 day(s).
| Time | Temp. | Humidity | Pressure | Rain* | Wind** | Luminosity | Snow |
|---|---|---|---|---|---|---|---|
| 1777528641 | 5° C | 47% | 1020.2 hPa | - | - | 178 W/m² | - |
| 1777528340 | 4.44° C | 48% | 1020.2 hPa | - | - | 188 W/m² | - |
| 1777528039 | 4.44° C | 49% | 1020.2 hPa | - | - | 192 W/m² | - |
| 1777527738 | 3.89° C | 50% | 1020.2 hPa | - | - | 251 W/m² | - |
| 1777527436 | 3.33° C | 53% | 1020.2 hPa | - | - | 193 W/m² | - |
| 1777527136 | 3.33° C | 55% | 1020.2 hPa | - | - | 143 W/m² | - |
| 1777526834 | 2.78° C | 57% | 1020.2 hPa | - | - | 102 W/m² | - |
| 1777526532 | 3.33° C | 60% | 1020.2 hPa | - | - | 122 W/m² | - |
| 1777526231 | 2.78° C | 58% | 1020.2 hPa | - | - | 185 W/m² | - |
| 1777525930 | 2.78° C | 59% | 1020.2 hPa | - | - | 171 W/m² | - |
| 1777525628 | 2.78° C | 56% | 1020.1 hPa | - | - | 166 W/m² | - |
| 1777525327 | 2.22° C | 61% | 1020.2 hPa | - | - | 134 W/m² | - |
| 1777525026 | 1.11° C | 64% | 1020.2 hPa | - | - | 109 W/m² | - |
| 1777524726 | 0.56° C | 67% | 1020.2 hPa | - | - | 95 W/m² | - |
| 1777524423 | 0.56° C | 67% | 1020.1 hPa | - | - | 80 W/m² | - |
| 1777524122 | -0.56° C | 72% | 1020.2 hPa | - | - | 81 W/m² | - |
| 1777523821 | -0.56° C | 72% | 1020.2 hPa | - | - | 38 W/m² | - |
| 1777523519 | -0.56° C | 73% | 1020.2 hPa | - | - | 51 W/m² | - |
| 1777523218 | -1.11° C | 73% | 1020.2 hPa | - | - | 61 W/m² | - |
| 1777522917 | -2.22° C | 76% | 1020.3 hPa | - | - | 50 W/m² | - |
| 1777522616 | -3.33° C | 81% | 1020.3 hPa | - | - | 53 W/m² | - |
| 1777522315 | -3.33° C | 81% | 1020.4 hPa | - | - | 30 W/m² | - |
| 1777522015 | -3.33° C | 82% | 1020.4 hPa | - | - | 28 W/m² | - |
| 1777521411 | -3.89° C | 82% | 1020.4 hPa | - | - | 21 W/m² | - |
| 1777521110 | -3.89° C | 83% | 1020.4 hPa | - | - | 19 W/m² | - |
* Rain since midnight (hover to see other rain measurements)
** Current wind speed in m/s (hover to see current wind gust speed)